When you browse on this site, cookies collect data to enhance your experience and personalize the content and advertising you see.
Visit our Privacy Policy to learn more. By continuing to use the site, you agree to this use of cookies and data.
  • en Suisse
  • Liste des pays
  • À 7 jours
  • Température de l'eau
  • Carte météo
  • Widgets météo
  • user-avatar
    Se connecter

    Météo par heure à Rouen

    Ce jour, 30 Mars, Lundi

    Heure Température Précipitation Vent Pression Humidité
    00:00 -3°C° 0 mm 7 m/s 767 mmHg 55%
    01:00 -3°C° 0 mm 7 m/s 767 mmHg 56%
    02:00 -4°C° 0 mm 7 m/s 767 mmHg 56%
    03:00 -4°C° 0 mm 7 m/s 766 mmHg 57%
    04:00 -4°C° 0 mm 6 m/s 766 mmHg 58%
    05:00 -4°C° 0 mm 6 m/s 767 mmHg 60%
    06:00 -4°C° 0 mm 5 m/s 767 mmHg 61%
    07:00 -2°C° 0 mm 6 m/s 767 mmHg 57%
    08:00 -1°C° 0 mm 7 m/s 766 mmHg 52%
    09:00 +2°C° 0 mm 7 m/s 766 mmHg 47%
    10:00 +2°C° 0 mm 8 m/s 766 mmHg 48%
    11:00 +4°C° 0 mm 8 m/s 765 mmHg 50%
    12:00 +5°C° 0 mm 8 m/s 765 mmHg 51%
    13:00 +6°C° 0 mm 8 m/s 764 mmHg 54%
    14:00 +6°C° 0 mm 8 m/s 764 mmHg 56%
    15:00 +6°C° 0 mm 8 m/s 764 mmHg 59%
    16:00 +5°C° 0 mm 7 m/s 763 mmHg 65%
    17:00 +4°C° 0 mm 6 m/s 763 mmHg 70%
    18:00 +3°C° 0 mm 5 m/s 763 mmHg 75%
    19:00 +2°C° 0 mm 5 m/s 763 mmHg 79%
    20:00 +2°C° 0 mm 5 m/s 763 mmHg 83%
    21:00 +1°C° 0 mm 5 m/s 763 mmHg 87%
    22:00 0°C° 0 mm 5 m/s 763 mmHg 89%
    23:00 0°C° 0 mm 4 m/s 764 mmHg 91%

    Demain, 31 Mars, Mardi

    Heure Température Précipitation Vent Pression Humidité
    00:00 0°C° 0 mm 4 m/s 764 mmHg 94%
    01:00 -1°C° 0 mm 4 m/s 763 mmHg 94%
    02:00 -1°C° 0 mm 4 m/s 763 mmHg 95%
    03:00 0°C° 0 mm 3 m/s 763 mmHg 95%
    04:00 0°C° 0 mm 3 m/s 763 mmHg 95%
    05:00 -1°C° 0 mm 4 m/s 763 mmHg 95%
    06:00 -1°C° 0 mm 4 m/s 763 mmHg 95%
    07:00 0°C° 0 mm 5 m/s 764 mmHg 88%
    08:00 +2°C° 0 mm 5 m/s 764 mmHg 80%
    09:00 +4°C° 0 mm 6 m/s 764 mmHg 73%
    10:00 +5°C° 0 mm 6 m/s 764 mmHg 67%
    11:00 +7°C° 0 mm 6 m/s 764 mmHg 61%
    12:00 +8°C° 0 mm 6 m/s 763 mmHg 55%
    13:00 +8°C° 0 mm 6 m/s 763 mmHg 54%
    14:00 +8°C° 0 mm 6 m/s 763 mmHg 53%
    15:00 +8°C° 0 mm 6 m/s 762 mmHg 52%
    16:00 +7°C° 0 mm 6 m/s 762 mmHg 57%
    17:00 +6°C° 0 mm 5 m/s 762 mmHg 61%
    18:00 +5°C° 0 mm 5 m/s 762 mmHg 66%
    19:00 +3°C° 0 mm 5 m/s 762 mmHg 66%
    20:00 +3°C° 0 mm 4 m/s 762 mmHg 66%
    21:00 +1°C° 0 mm 4 m/s 762 mmHg 66%
    22:00 0°C° 0 mm 4 m/s 762 mmHg 68%
    23:00 -1°C° 0 mm 4 m/s 762 mmHg 71%

    Après-demain, 1 Avril, Mercredi

    Heure Température Précipitation Vent Pression Humidité
    00:00 0°C° 0 mm 3 m/s 762 mmHg 73%
    01:00 -1°C° 0 mm 3 m/s 761 mmHg 74%
    02:00 -1°C° 0 mm 3 m/s 761 mmHg 75%
    03:00 -2°C° 0 mm 3 m/s 761 mmHg 76%
    04:00 -2°C° 0 mm 3 m/s 761 mmHg 75%
    05:00 -2°C° 0 mm 2 m/s 761 mmHg 74%
    06:00 -2°C° 0 mm 2 m/s 761 mmHg 73%
    07:00 +2°C° 0 mm 2 m/s 761 mmHg 66%
    08:00 +4°C° 0 mm 2 m/s 760 mmHg 60%
    09:00 +7°C° 0 mm 3 m/s 760 mmHg 53%
    10:00 +8°C° 0 mm 3 m/s 760 mmHg 50%
    11:00 +9°C° 0 mm 3 m/s 760 mmHg 47%
    12:00 +10°C° 0 mm 3 m/s 760 mmHg 44%
    13:00 +10°C° 0 mm 3 m/s 759 mmHg 45%
    14:00 +10°C° 0 mm 3 m/s 758 mmHg 47%
    15:00 +10°C° 0 mm 3 m/s 758 mmHg 49%
    16:00 +9°C° 0 mm 3 m/s 758 mmHg 58%
    17:00 +7°C° 0 mm 3 m/s 758 mmHg 66%
    18:00 +5°C° 0 mm 3 m/s 757 mmHg 75%
    19:00 +4°C° 0 mm 3 m/s 758 mmHg 79%
    20:00 +2°C° 0 mm 3 m/s 758 mmHg 83%
    21:00 +1°C° 0 mm 3 m/s 758 mmHg 87%
    22:00 +2°C° 0 mm 2 m/s 758 mmHg 88%
    23:00 +2°C° 0 mm 2 m/s 758 mmHg 89%

    2 Avril, Jeudi

    Heure Température Précipitation Vent Pression Humidité
    00:00 +2°C° 0 mm 1 m/s 758 mmHg 90%
    01:00 +2°C° 0 mm 1 m/s 757 mmHg 89%
    02:00 +2°C° 0 mm 1 m/s 757 mmHg 88%
    03:00 +1°C° 0 mm 0 m/s 756 mmHg 87%
    04:00 +3°C° 0 mm 1 m/s 756 mmHg 84%
    05:00 +4°C° 0 mm 1 m/s 756 mmHg 82%
    06:00 +4°C° 0 mm 1 m/s 756 mmHg 80%
    07:00 +6°C° 0 mm 1 m/s 756 mmHg 75%
    08:00 +6°C° 0 mm 2 m/s 756 mmHg 71%
    09:00 +7°C° 0 mm 2 m/s 756 mmHg 67%
    10:00 +7°C° 0 mm 2 m/s 756 mmHg 66%
    11:00 +7°C° 0 mm 3 m/s 756 mmHg 65%
    12:00 +8°C° 0 mm 3 m/s 756 mmHg 64%
    13:00 +8°C° 0 mm 3 m/s 755 mmHg 65%
    14:00 +7°C° 0 mm 4 m/s 755 mmHg 66%
    15:00 +7°C° 0 mm 4 m/s 754 mmHg 68%
    16:00 +7°C° 0 mm 4 m/s 754 mmHg 72%
    17:00 +7°C° 0 mm 3 m/s 754 mmHg 76%
    18:00 +5°C° 0 mm 3 m/s 755 mmHg 81%
    19:00 +4°C° 0 mm 3 m/s 755 mmHg 85%
    20:00 +3°C° 0 mm 3 m/s 755 mmHg 89%
    21:00 +2°C° 0 mm 3 m/s 755 mmHg 93%
    22:00 +3°C° 0 mm 3 m/s 755 mmHg 94%
    23:00 +3°C° 0 mm 3 m/s 755 mmHg 95%

    3 Avril, Vendredi

    Heure Température Précipitation Vent Pression Humidité
    00:00 +3°C° 0 mm 3 m/s 755 mmHg 96%
    01:00 +3°C° 0 mm 3 m/s 755 mmHg 96%
    02:00 +3°C° 0 mm 3 m/s 755 mmHg 97%
    03:00 +5°C° 0 mm 2 m/s 755 mmHg 97%
    04:00 +5°C° 0 mm 2 m/s 755 mmHg 97%
    05:00 +5°C° 0 mm 2 m/s 756 mmHg 97%
    06:00 +6°C° 0 mm 2 m/s 756 mmHg 97%
    07:00 +6°C° 0 mm 2 m/s 757 mmHg 90%
    08:00 +7°C° 0 mm 2 m/s 757 mmHg 83%
    09:00 +8°C° 0 mm 3 m/s 757 mmHg 76%
    10:00 +9°C° 0 mm 2 m/s 758 mmHg 72%
    11:00 +9°C° 0 mm 2 m/s 758 mmHg 69%
    12:00 +9°C° 0 mm 2 m/s 758 mmHg 66%
    13:00 +10°C° 0 mm 2 m/s 758 mmHg 64%
    14:00 +10°C° 0 mm 2 m/s 758 mmHg 63%
    15:00 +10°C° 0 mm 2 m/s 758 mmHg 61%
    16:00 +9°C° 0 mm 2 m/s 758 mmHg 66%
    17:00 +8°C° 0 mm 2 m/s 758 mmHg 71%
    18:00 +6°C° 0 mm 2 m/s 759 mmHg 76%
    19:00 +5°C° 0 mm 2 m/s 759 mmHg 79%
    20:00 +3°C° 0 mm 3 m/s 759 mmHg 81%
    21:00 +2°C° 0 mm 3 m/s 760 mmHg 84%
    22:00 +2°C° 0 mm 3 m/s 760 mmHg 85%
    23:00 +2°C° 0 mm 3 m/s 760 mmHg 86%

    4 Avril, Samedi

    Heure Température Précipitation Vent Pression Humidité
    00:00 +1°C° 0 mm 3 m/s 760 mmHg 86%
    01:00 +1°C° 0 mm 3 m/s 759 mmHg 86%
    02:00 +1°C° 0 mm 3 m/s 759 mmHg 87%
    03:00 0°C° 0 mm 3 m/s 759 mmHg 87%
    04:00 0°C° 0 mm 3 m/s 759 mmHg 87%
    05:00 0°C° 0 mm 3 m/s 759 mmHg 86%
    06:00 0°C° 0 mm 3 m/s 759 mmHg 86%
    07:00 +2°C° 0 mm 3 m/s 759 mmHg 80%
    08:00 +4°C° 0 mm 4 m/s 759 mmHg 74%
    09:00 +7°C° 0 mm 4 m/s 758 mmHg 68%
    10:00 +8°C° 0 mm 4 m/s 758 mmHg 64%
    11:00 +11°C° 0 mm 4 m/s 758 mmHg 61%
    12:00 +12°C° 0 mm 4 m/s 758 mmHg 57%
    13:00 +13°C° 0 mm 4 m/s 757 mmHg 57%
    14:00 +13°C° 0 mm 4 m/s 757 mmHg 57%
    15:00 +13°C° 0 mm 3 m/s 757 mmHg 58%
    16:00 +12°C° 0 mm 3 m/s 757 mmHg 63%
    17:00 +12°C° 0 mm 2 m/s 756 mmHg 69%
    18:00 +12°C° 0 mm 2 m/s 756 mmHg 75%
    19:00 +10°C° 0 mm 2 m/s 756 mmHg 77%
    20:00 +9°C° 0 mm 2 m/s 757 mmHg 78%
    21:00 +8°C° 0 mm 2 m/s 757 mmHg 80%
    22:00 +8°C° 0 mm 2 m/s 757 mmHg 82%
    23:00 +8°C° 0 mm 2 m/s 757 mmHg 83%
    Voir plus